Home   Weather   Bismarck   Past weeks

Flag for USA Past Weather in Bismarck, North Dakota, USA — Yesterday and Last 2 Weeks

Now
67 °F

Sunny.


Feels Like: 67 °F
Forecast: 45 / 69 °F
Wind: 7 mph from Southeast

Location: Bismarck Municipal Airport

Current Time: Sep 28, 2016 at 7:10:16 PM

Latest Report: Sep 28, 2016 at 5:52 PM


Visibility: 10 mi

Pressure: 30.32 "Hg (28.56 "Hg at 513m altitude)

Humidity: 44%

Dew Point: 44 °F

Location of BismarckLocation

Past Weather in Bismarck — Graph

°F

Bismarck Temperature Yesterday

Maximum temperature yesterday: 73 °F (at 3:52 PM)
Minimum temperature yesterday: 37 °F (at 7:52 AM)
Average temperature yesterday: 54 °F

High & Low Weather Summary for the Past Weeks

 TemperatureHumidityPressure
High82 °F (Sep 17, 3:52 PM)100% (Sep 15, 8:52 AM)30.32 "Hg (Sep 15, 8:52 AM)
Low37 °F (Sep 27, 7:52 AM)23% (Sep 18, 4:52 PM)29.61 "Hg (Sep 18, 5:52 AM)
Average59 °F69%29.99 "Hg
* Reported Sep 13 5:52 PM — Sep 28 5:52 PM, Bismarck, Weather by CustomWeather, © 2016

Note: Actual official high and low records may vary slightly from our data, if they occured in-between our weather recording intervals... More about our weather records

Advertising

Bismarck Weather History for the Previous 24 Hours

Scroll right to see more
 ConditionsComfort  
Time TempWeatherWind HumidityBarometerVisibility
5:52 PM
Wed, Sep 28
67 °FSunny.7 mph44%30.32 "Hg10 mi
4:52 PM69 °FSunny.5 mph30%30.31 "Hg10 mi
3:52 PM69 °FSunny.10 mph32%30.30 "Hg10 mi
2:52 PM68 °FSunny.No wind31%30.30 "Hg10 mi
1:52 PM67 °FSunny.3 mph37%30.30 "Hg10 mi
12:52 PM64 °FSunny.7 mph47%30.31 "Hg10 mi
11:52 AM60 °FSunny.3 mph56%30.30 "Hg10 mi
10:52 AM55 °FSunny.No wind69%30.30 "Hg10 mi
9:52 AM48 °FSunny.5 mph80%30.29 "Hg10 mi
8:52 AM41 °FSunny.6 mph89%30.27 "Hg10 mi
7:52 AM37 °FSunny.3 mph93%30.25 "Hg10 mi
6:52 AM37 °FClear.6 mph93%30.22 "Hg10 mi
5:52 AM38 °FClear.7 mph90%30.19 "Hg10 mi
4:52 AM38 °FClear.8 mph93%30.17 "Hg10 mi
3:52 AM40 °FClear.7 mph86%30.14 "Hg10 mi
2:52 AM42 °FClear.7 mph82%30.12 "Hg10 mi
1:52 AM43 °FClear.No wind93%30.09 "Hg10 mi
12:52 AM42 °FClear.No wind92%30.08 "Hg10 mi
11:52 PM
Tue, Sep 27
47 °FClear.No wind83%30.04 "Hg10 mi
10:52 PM48 °FClear.7 mph83%30.03 "Hg10 mi
9:52 PM52 °FClear.5 mph72%30.01 "Hg10 mi
8:52 PM52 °FClear.5 mph75%30.01 "Hg10 mi
7:52 PM63 °FClear.6 mph48%29.98 "Hg10 mi
Weather by CustomWeather, © 2016

See weather overviewHow to use our weather pages